GW7647 Weather Reports


time (UTC)temp
F
wind
direction
speed
knots
gust
knots
rain 1hr
in
rain 24hr
in
rain mn
in
humidity
%
barometer
mb
20260906090528 74 293 1.7 3.5 0.00 0.00 0.00 96 1016.9
20260906085535 74 297 0.9 2.6 0.00 0.00 0.00 96 1016.8
20260906084523 74 306 1.7 3.5 0.00 0.00 0.00 97 1016.7
20260906083529 74 300 0.9 1.7 0.00 0.00 0.00 97 1016.8
20260906082535 74 252 1.7 2.6 0.00 0.00 0.00 97 1016.6
20260906081522 74 341 1.7 3.5 0.00 0.00 0.00 97 1016.6
20260906080528 74 338 0.9 2.6 0.00 0.00 0.00 97 1016.6
20260906075534 74 295 0.9 2.6 0.00 0.00 0.00 97 1016.7
20260906074522 74 326 0.9 2.6 0.00 0.00 0.00 97 1016.7
20260906073529 74 27 0.9 3.5 0.00 0.00 0.00 97 1016.7
20260906072534 74 346 0.9 2.6 0.00 0.00 0.00 97 1016.7
20260906071522 74 67 0.9 2.6 0.00 0.00 0.00 97 1016.9
20260906070549 74 342 0.0 1.7 0.00 0.00 0.00 97 1016.9
20260906065535 74 134 0.0 2.6 0.00 0.00 0.00 97 1016.8
20260906064523 74 259 0.0 2.6 0.00 0.00 0.00 97 1016.8
20260906063549 75 293 0.0 1.7 0.00 0.00 0.00 96 1016.9
20260906062535 75 4 0.0 1.7 0.00 0.00 0.00 96 1016.9
20260906061523 75 45 0.0 1.7 0.00 0.00 0.00 95 1017.0
20260906060529 75 261 0.0 1.7 0.00 0.00 0.00 95 1017.0
20260906055615 75 270 0.0 1.7 0.00 0.00 0.00 94 1016.8
20260906054523 76 175 0.9 1.7 0.00 0.00 0.00 94 1016.8
20260906053529 76 45 0.0 1.7 0.00 0.00 0.00 93 1016.8
20260906052535 77 195 0.0 1.7 0.00 0.00 0.00 93 1016.9
20260906051523 77 236 0.9 1.7 0.00 0.00 0.00 93 1016.8
20260906050528 77 246 0.0 1.7 0.00 0.00 0.00 92 1016.7
20260906045534 77 338 0.0 1.7 0.00 0.00 0.00 92 1016.6
20260906044523 77 272 0.0 1.7 0.00 0.00 0.00 91 1016.5
20260906043529 78 244 0.9 2.6 0.00 0.00 0.00 91 1016.4
20260906042535 78 270 0.0 0.9 0.00 0.00 0.00 90 1016.2
20260906041523 78 298 0.9 1.7 0.00 0.00 0.00 89 1016.2
20260906040529 79 197 0.9 4.3 0.00 0.00 0.00 89 1016.2
20260906035555 79 90 0.0 1.7 0.00 0.00 0.00 87 1016.1
20260906034523 80 267 1.7 2.6 0.00 0.00 0.00 87 1016.2
20260906033529 80 120 0.9 3.5 0.00 0.00 0.00 87 1016.2
20260906032535 81 253 0.9 2.6 0.00 0.00 0.00 87 1016.2
20260906031523 81 239 0.9 2.6 0.00 0.00 0.00 86 1016.1
20260906030549 81 272 1.7 2.6 0.00 0.00 0.00 86 1016.0
20260906025535 82 263 1.7 3.5 0.00 0.00 0.00 86 1015.9
20260906024523 82 0.0 0.0 0.00 0.00 0.00 85 1015.9
20260906023529 82 252 0.9 3.5 0.00 0.00 0.00 85 1015.7
20260906022555 83 261 0.9 2.6 0.00 0.00 0.00 84 1015.6
20260906021523 83 27 1.7 2.6 0.00 0.00 0.00 84 1015.5
20260906020549 84 275 2.6 3.5 0.00 0.00 0.00 83 1015.6
20260906015535 84 166 1.7 3.5 0.00 0.00 0.00 83 1015.6
20260906014523 85 277 1.7 3.5 0.00 0.00 0.00 82 1015.3
20260906013529 85 205 1.7 3.5 0.00 0.00 0.00 82 1015.0
20260906012535 86 292 0.9 3.5 0.00 0.00 0.00 81 1014.8
20260906011523 86 0.0 0.0 0.00 0.00 0.00 81 1014.7
20260906010529 87 256 0.9 1.7 0.00 0.00 0.00 80 1014.6
20260906005535 87 293 0.0 1.7 0.00 0.00 0.00 79 1014.5
20260906004543 87 259 1.7 1.7 0.00 0.00 0.00 77 1014.4
20260906003529 88 281 0.0 1.7 0.00 0.00 0.00 76 1014.4
20260906002615 89 270 0.0 0.9 0.00 0.00 0.00 74 1014.5
20260906001523 89 279 0.9 2.6 0.00 0.00 0.00 74 1014.6
20260906000529 90 0.0 0.0 0.00 0.00 0.00 72 1014.7
20260905235535 91 238 0.9 1.7 0.00 0.00 0.00 70 1014.8
20260905234523 91 313 0.9 2.6 0.00 0.00 0.00 70 1014.7
20260905233529 92 203 0.0 0.9 0.00 0.00 0.00 68 1014.7
20260905232615 92 257 1.7 3.5 0.00 0.00 0.00 67 1014.7
20260905231523 93 245 1.7 2.6 0.00 0.00 0.00 66 1014.6
20260905230529 94 266 1.7 2.6 0.00 0.00 0.00 64 1014.5
20260905225535 95 242 1.7 3.5 0.00 0.00 0.00 63 1014.4
20260905224523 94 257 2.6 4.3 0.00 0.00 0.00 63 1014.4
20260905223529 94 257 2.6 4.3 0.00 0.00 0.00 64 1014.4
20260905222535 95 232 2.6 4.3 0.00 0.00 0.00 63 1014.4
20260905221523 95 265 2.6 4.3 0.00 0.00 0.00 63 1014.3
20260905220529 96 261 0.9 2.6 0.00 0.00 0.00 62 1014.1
20260905215535 96 260 1.7 2.6 0.00 0.00 0.00 61 1014.2
20260905214523 96 265 2.6 6.1 0.00 0.00 0.00 60 1014.5
20260905213528 96 267 1.7 3.5 0.00 0.00 0.00 61 1014.4
20260905212535 96 294 2.6 5.2 0.00 0.00 0.00 60 1014.3
20260905211523 96 242 2.6 3.5 0.00 0.00 0.00 60 1014.4
20260905210528 97 208 2.6 4.3 0.00 0.00 0.00 59 1014.5
20260905205535 97 284 2.6 5.2 0.00 0.00 0.00 59 1014.7
20260905204542 96 230 3.5 7.0 0.00 0.00 0.00 59 1014.8
20260905203528 96 256 3.5 4.3 0.00 0.00 0.00 58 1015.0
20260905202534 97 279 2.6 4.3 0.00 0.00 0.00 60 1015.1
20260905201602 97 262 2.6 4.3 0.00 0.00 0.00 58 1015.3
20260905200528 96 245 2.6 3.5 0.00 0.00 0.00 59 1015.2
20260905195534 97 284 2.6 2.6 0.00 0.00 0.00 59 1015.2
20260905194522 97 274 2.6 3.5 0.00 0.00 0.00 58 1015.2
20260905193608 97 221 3.5 5.2 0.00 0.00 0.00 59 1015.4
20260905192554 96 232 2.6 5.2 0.00 0.00 0.00 58 1015.4
20260905191522 97 283 1.7 3.5 0.00 0.00 0.00 58 1015.5
20260905190528 96 166 1.7 4.3 0.00 0.00 0.00 59 1015.8
20260905185533 97 345 2.6 4.3 0.00 0.00 0.00 58 1016.0
20260905184522 96 223 1.7 2.6 0.00 0.00 0.00 61 1016.1
20260905183528 95 162 1.7 3.5 0.00 0.00 0.00 60 1016.3
20260905182534 96 90 1.7 2.6 0.00 0.00 0.00 60 1016.4
20260905181522 95 270 2.6 3.5 0.00 0.00 0.00 60 1016.4
20260905180528 95 145 1.7 3.5 0.00 0.00 0.00 60 1016.5
20260905175534 95 36 2.6 3.5 0.00 0.00 0.00 59 1016.5
20260905174521 94 210 1.7 2.6 0.00 0.00 0.00 61 1016.6
20260905173528 93 210 1.7 2.6 0.00 0.00 0.00 62 1016.7
20260905172533 93 227 2.6 2.6 0.00 0.00 0.00 61 1016.8
20260905171541 93 193 1.7 2.6 0.00 0.00 0.00 61 1016.9
20260905170527 92 154 1.7 3.5 0.00 0.00 0.00 62 1017.2
20260905165613 92 208 1.7 3.5 0.00 0.00 0.00 62 1017.3
20260905164521 91 113 2.6 3.5 0.00 0.00 0.00 62 1017.6
20260905163527 91 126 1.7 3.5 0.00 0.00 0.00 62 1017.5
20260905162613 91 80 2.6 5.2 0.00 0.00 0.00 62 1017.4
20260905161520 89 93 3.5 4.3 0.00 0.00 0.00 63 1017.5
20260905160526 90 172 1.7 2.6 0.00 0.00 0.00 63 1017.4
20260905155532 89 102 2.6 3.5 0.00 0.00 0.00 63 1017.6
20260905154520 87 164 2.6 3.5 0.00 0.00 0.00 65 1018.0
20260905153526 88 107 2.6 3.5 0.00 0.00 0.00 65 1018.0
20260905152532 87 79 3.5 4.3 0.00 0.00 0.00 66 1017.8
20260905151521 86 103 2.6 4.3 0.00 0.00 0.00 68 1017.8
20260905150527 85 74 3.5 5.2 0.00 0.00 0.00 69 1017.8
20260905145612 85 182 2.6 4.3 0.00 0.00 0.00 70 1017.9
20260905144520 85 145 2.6 5.2 0.00 0.00 0.00 70 1017.9
20260905143526 85 165 1.7 2.6 0.00 0.00 0.00 71 1018.2
20260905142532 87 84 4.3 5.2 0.00 0.00 0.00 67 1018.3
20260905141520 85 87 2.6 5.2 0.00 0.00 0.00 69 1018.2
20260905140526 86 87 3.5 5.2 0.00 0.00 0.00 69 1018.1
20260905135531 84 57 2.6 5.2 0.00 0.00 0.00 72 1018.2
20260905134519 84 154 3.5 5.2 0.00 0.00 0.00 73 1018.4
20260905133525 83 113 4.3 7.0 0.00 0.00 0.00 75 1018.4
20260905132531 82 162 3.5 6.1 0.00 0.00 0.00 77 1018.4
20260905131519 81 78 3.5 7.0 0.00 0.00 0.00 81 1018.5
20260905130525 80 106 1.7 2.6 0.00 0.00 0.00 87 1018.4
20260905125530 80 153 2.6 5.2 0.00 0.00 0.00 87 1018.4
20260905124536 79 154 2.6 7.0 0.00 0.00 0.00 90 1018.1
20260905123545 77 99 3.5 7.8 0.00 0.00 0.00 93 1018.0
20260905122530 77 105 2.6 5.2 0.00 0.00 0.00 95 1017.9
20260905121536 75 0.0 0.0 0.00 0.00 0.00 98 1017.2
20260905120525 75 0.0 0.0 0.00 0.00 0.00 98 1017.2
20260905115550 75 0.0 0.0 0.00 0.00 0.00 98 1017.0
20260905114537 75 0.0 0.0 0.00 0.00 0.00 98 1016.9
20260905113524 75 0.0 0.0 0.00 0.00 0.00 98 1016.8
20260905112531 75 0.0 0.0 0.00 0.00 0.00 98 1016.8
20260905111537 75 0.0 0.0 0.00 0.00 0.00 98 1016.6
20260905110524 75 0.0 0.0 0.00 0.00 0.00 98 1016.5
20260905105530 75 0.0 0.0 0.00 0.00 0.00 98 1016.5
20260905104519 75 0.0 0.0 0.00 0.00 0.00 98 1016.5
20260905103524 75 0.0 0.0 0.00 0.00 0.00 98 1016.7
20260905102530 75 0.0 0.0 0.00 0.00 0.00 98 1016.8
20260905101519 76 0.0 0.0 0.00 0.00 0.00 97 1016.8
20260905100525 76 0.0 0.0 0.00 0.00 0.00 97 1016.7
20260905095530 76 0.0 0.0 0.00 0.00 0.00 97 1016.6
20260905094519 76 0.0 0.0 0.00 0.00 0.00 97 1016.5
20260905093525 76 0.0 0.0 0.00 0.00 0.00 97 1016.5
20260905092551 76 0.0 0.0 0.00 0.00 0.00 97 1016.4
20260905091519 76 0.0 0.0 0.00 0.00 0.00 97 1016.4